EA1GLE Weather Reports


time (UTC)temp
C
wind
direction
speed
KPH
gust
KPH
rain 1hr
cm
rain 24hr
cm
rain mn
cm
humidity
%
barometer
mb
20260503021803 9 61 0.0 3.2 0.00 1.65 0.00 99 1016.1
20260503020903 9 48 0.0 3.2 0.00 1.65 0.00 99 1016.1
20260503020003 9 53 0.0 3.2 0.00 1.65 0.00 99 1016.3
20260503013603 10 0 0.0 0.0 0.00 1.65 0.00 99 1016.2
20260503012703 9 0 0.0 0.0 0.00 1.65 0.00 99 1016.5
20260503011803 9 37 0.0 3.2 0.00 1.65 0.00 99 1016.3
20260503010903 9 345 0.0 1.6 0.00 1.65 0.00 99 1016.6
20260503010003 9 43 0.0 3.2 0.00 1.65 0.00 99 1016.5
20260503004503 9 0 0.0 0.0 0.00 1.65 0.00 99 1016.7
20260503003603 9 55 0.0 3.2 0.00 1.65 0.00 99 1016.8
20260503002703 9 268 0.0 3.2 0.00 1.65 0.00 99 1016.9
20260503002018 9 42 0.0 1.6 0.00 1.65 0.00 99 1016.7
20260503001118 9 0 0.0 0.0 0.00 1.65 0.00 99 1016.9
20260502235403 10 155 0.0 4.8 0.00 1.65 0.00 99 1017.0
20260502234503 9 342 0.0 3.2 0.00 1.65 0.00 99 1016.9
20260502233603 9 0 0.0 0.0 0.00 1.65 0.00 99 1017.0
20260502232703 9 0 0.0 0.0 0.00 1.65 0.00 99 1017.1
20260502231803 10 0 0.0 0.0 0.00 1.65 0.00 99 1017.0
20260502230903 9 0 0.0 0.0 0.00 1.65 0.00 99 1016.9
20260502230003 10 66 0.0 1.6 0.00 1.65 0.00 99 1017.0
20260502225403 10 58 0.0 1.6 0.00 1.65 0.00 99 1017.1
20260502224503 10 58 0.0 1.6 0.00 1.65 0.00 99 1016.9
20260502223603 9 0 0.0 0.0 0.00 1.65 0.00 99 1016.8
20260502221803 10 0 0.0 0.0 0.00 1.65 0.00 99 1017.0
20260502220903 10 40 0.0 4.8 0.00 1.65 0.00 99 1017.0
20260502220003 10 45 3.2 4.8 0.00 1.65 0.00 99 1016.7
20260502215403 10 49 1.6 4.8 0.00 1.65 1.65 99 1016.9
20260502214503 10 61 0.0 3.2 0.00 1.65 1.65 99 1017.1
20260502213603 10 0 0.0 0.0 0.00 1.65 1.65 99 1016.9
20260502211116 11 65 0.0 3.2 0.00 1.65 1.65 99 1017.2
20260502210003 11 75 0.0 3.2 0.00 1.65 1.65 99 1017.0
20260502205403 11 61 1.6 4.8 0.00 1.65 1.65 99 1016.8
20260502204717 11 55 1.6 4.8 0.00 1.65 1.65 99 1017.1
20260502203818 11 59 0.0 3.2 0.00 1.65 1.65 99 1017.4
20260502201803 11 0 0.0 0.0 0.00 1.65 1.65 99 1016.8
20260502200903 11 0 0.0 0.0 0.00 1.65 1.65 99 1016.5
20260502200217 11 52 0.0 3.2 0.00 1.65 1.65 99 1016.7
20260502195403 11 63 0.0 1.6 0.00 1.65 1.65 99 1016.7
20260502194716 11 59 0.0 1.6 0.00 1.65 1.65 99 1016.6
20260502192917 11 54 1.6 3.2 0.00 1.65 1.65 99 1016.4
20260502191803 11 68 0.0 3.2 0.03 1.65 1.65 99 1016.5
20260502190903 11 52 1.6 4.8 0.05 1.65 1.65 99 1016.2
20260502190004 12 55 1.6 3.2 0.05 1.65 1.65 99 1016.2
20260502185617 12 64 1.6 3.2 0.05 1.65 1.65 99 1016.5
20260502184503 12 79 0.0 3.2 0.05 1.65 1.65 99 1016.2
20260502183603 12 60 1.6 6.4 0.05 1.65 1.65 99 1016.2
20260502181803 12 234 1.6 3.2 0.03 1.63 1.63 99 1016.8
20260502180903 12 176 1.6 3.2 0.00 1.60 1.60 99 1016.8
20260502163603 12 58 0.0 1.6 0.10 1.27 1.27 91 1017.0
20260502162703 12 72 0.0 1.6 0.08 1.24 1.24 89 1016.8
20260502161803 12 167 1.6 4.8 0.05 1.22 1.22 86 1016.6
20260502160903 13 274 4.8 11.3 0.03 1.19 1.19 78 1016.6
20260502160218 13 271 4.8 11.3 0.00 1.17 1.17 77 1016.8
20260502123603 13 168 4.8 9.7 0.28 0.56 0.56 96 1018.4
20260502120903 12 230 6.4 12.9 0.46 0.53 0.53 96 1018.5
20260502115403 12 231 8.0 16.1 0.33 0.36 0.38 94 1018.9
20260502114503 12 206 6.4 12.9 0.28 0.30 0.30 94 1018.9
20260502113603 13 198 6.4 14.5 0.25 0.28 0.28 93 1018.9
20260502112703 12 196 8.0 16.1 0.15 0.18 0.18 91 1018.9
20260502110903 14 185 12.9 29.0 0.05 0.08 0.08 85 1018.9
20260502110003 15 169 9.7 25.7 0.00 0.03 0.03 81 1018.5
20260502105403 15 150 8.0 25.7 0.00 0.03 0.03 82 1018.1
20260502104503 15 164 11.3 29.0 0.00 0.03 0.03 81 1018.0
20260502103816 16 161 11.3 24.1 0.00 0.03 0.03 76 1018.6
20260502101803 16 159 9.7 22.5 0.00 0.03 0.03 78 1018.8
20260502101118 16 161 9.7 24.1 0.00 0.03 0.03 78 1019.0
20260502090903 15 162 11.3 24.1 0.03 0.03 0.03 83 1019.2
20260502070903 14 95 3.2 11.3 0.00 0.00 0.00 84 1019.2
20260502070003 14 96 3.2 11.3 0.00 0.00 0.00 84 1019.3
20260502065618 14 98 3.2 11.3 0.00 0.00 0.00 84 1019.5
20260502064503 14 65 3.2 6.4 0.00 0.00 0.00 84 1019.4
20260502063603 13 67 3.2 12.9 0.00 0.00 0.00 84 1019.1
20260502062703 13 78 3.2 9.7 0.00 0.00 0.00 84 1019.2
20260502061803 13 94 3.2 14.5 0.00 0.00 0.00 84 1019.2
20260502060903 13 90 3.2 14.5 0.00 0.00 0.00 84 1019.4
20260502060003 13 94 3.2 11.3 0.00 0.00 0.00 84 1019.2
20260502052703 13 80 3.2 9.7 0.00 0.00 0.00 84 1019.0
20260502052017 13 81 3.2 11.3 0.00 0.00 0.00 83 1019.3
20260502051118 13 83 3.2 11.3 0.00 0.00 0.00 83 1019.2
20260502050003 13 77 3.2 11.3 0.00 0.00 0.00 83 1019.2
20260502045403 13 84 3.2 9.7 0.00 0.00 0.00 83 1019.1
20260502044504 13 88 3.2 11.3 0.00 0.00 0.00 83 1019.1
20260502043818 13 91 3.2 11.3 0.00 0.00 0.00 83 1019.4
20260502042703 13 82 3.2 6.4 0.00 0.00 0.00 84 1019.3
20260502041803 13 83 1.6 12.9 0.00 0.00 0.00 85 1019.3
20260502040903 13 70 3.2 9.7 0.00 0.00 0.00 85 1019.4
20260502034503 13 45 4.8 9.7 0.00 0.00 0.00 86 1019.5
20260502033817 13 36 3.2 4.8 0.00 0.00 0.00 86 1019.5
20260502032703 13 28 1.6 4.8 0.00 0.00 0.00 85 1019.8
20260502031803 13 64 0.0 1.6 0.00 0.00 0.00 86 1019.7
20260502030003 13 71 1.6 3.2 0.00 0.00 0.00 88 1019.5
20260502025403 12 80 0.0 3.2 0.00 0.00 0.00 89 1019.4
20260502024503 12 76 0.0 4.8 0.00 0.00 0.00 88 1019.4
20260502023817 12 96 0.0 3.2 0.00 0.00 0.00 87 1019.7
20260502022703 12 106 0.0 3.2 0.00 0.00 0.00 89 1019.5